Retour au catalogue

THORAD AGENA D DEB

ActifPO
NORAD 4943·DEBRIS·🇺🇸 United States

Lancé Apr 8, 1970 depuis Vandenberg Space Force Base

Loading…

Prochains Passages

TLE

Source: Space-Track
1 04943U 70025GD  26228.36558237  .00000243  00000-0  70271-3 0  9992
2 04943  99.6471 187.3347 0228967  34.5653 117.2056 13.10676891689604

Suivez THORAD AGENA D DEB en temps réel avec AllMySat

Download on the App Store